FW3819 Weather Reports


Display with metric or nautical units.
time (UTC)temp
F
wind
direction
speed
MPH
gust
MPH
rain 1hr
in
rain 24hr
in
rain mn
in
humidity
%
barometer
mb
20260510134527 65 125 1.0 3.0 0.00 0.00 0.00 73 1014.5
20260510134030 64 100 1.0 3.0 0.00 0.00 0.00 75 1014.5
20260510133232 64 100 1.0 3.0 0.00 0.00 0.00 76 1014.7
20260510132732 64 11 1.0 4.0 0.00 0.00 0.00 78 1014.7
20260510132232 63 143 1.0 4.0 0.00 0.00 0.00 79 1014.6
20260510131732 63 188 1.0 3.0 0.00 0.00 0.00 80 1014.6
20260510131533 63 171 1.0 3.0 0.00 0.00 0.00 81 1014.5
20260510130732 62 82 1.0 3.0 0.00 0.00 0.00 82 1014.6
20260510130523 62 100 1.0 3.0 0.00 0.00 0.00 84 1014.5
20260510125730 61 188 1.0 3.0 0.00 0.00 0.00 84 1014.6
20260510125533 61 187 1.0 3.0 0.00 0.00 0.00 85 1014.5
20260510124731 60 187 1.0 3.0 0.00 0.00 0.00 86 1014.6
20260510124225 60 117 1.0 3.0 0.00 0.00 0.00 86 1014.8
20260510123719 59 279 1.0 3.0 0.00 0.00 0.00 87 1014.8
20260510123213 58 340 0.0 3.0 0.00 0.00 0.00 89 1014.8
20260510122758 57 171 0.0 1.0 0.00 0.00 0.00 91 1014.8
20260510122741 58 171 0.0 1.0 0.00 0.00 0.00 90 1014.8
20260510121952 57 234 0.0 1.0 0.00 0.00 0.00 92 1014.8
20260510121202 56 54 0.0 1.0 0.00 0.00 0.00 93 1014.7
20260510120701 56 54 0.0 1.0 0.00 0.00 0.00 93 1014.8
20260510120201 55 54 0.0 1.0 0.00 0.00 0.00 94 1014.8
20260510115702 55 279 0.0 3.0 0.00 0.00 0.00 94 1014.8
20260510115453 55 143 0.0 3.0 0.00 0.00 0.00 94 1014.6
20260510114702 54 234 0.0 3.0 0.00 0.00 0.00 94 1014.6
20260510114202 54 279 1.0 3.0 0.00 0.00 0.00 94 1014.6
20260510113702 53 215 0.0 3.0 0.00 0.00 0.00 94 1014.6
20260510113501 53 248 0.0 1.0 0.00 0.00 0.00 94 1014.5
20260510112954 52 326 0.0 1.0 0.00 0.00 0.00 94 1014.4
20260510112201 52 326 0.0 1.0 0.00 0.00 0.00 94 1014.3
20260510111959 51 279 0.0 1.0 0.00 0.00 0.00 94 1014.1
20260510111203 51 326 0.0 3.0 0.00 0.00 0.00 94 1014.0
20260510110702 51 268 0.0 3.0 0.00 0.00 0.00 94 1013.9
20260510110203 51 11 0.0 1.0 0.00 0.00 0.00 94 1013.9
20260510105702 51 11 0.0 1.0 0.00 0.00 0.00 94 1013.8
20260510105203 51 100 0.0 1.0 0.00 0.00 0.00 94 1013.8
20260510104702 50 296 0.0 1.0 0.00 0.00 0.00 94 1013.7
20260510104459 50 326 0.0 1.0 0.00 0.00 0.00 94 1013.5
20260510103701 50 116 0.0 1.0 0.00 0.00 0.00 94 1013.5
20260510103203 50 11 0.0 1.0 0.00 0.00 0.00 94 1013.3
20260510102702 50 100 0.0 1.0 0.00 0.00 0.00 94 1013.2
20260510102203 50 100 0.0 1.0 0.00 0.00 0.00 93 1013.1
20260510101702 50 54 0.0 1.0 0.00 0.00 0.00 93 1013.1
20260510101457 50 11 0.0 1.0 0.00 0.00 0.00 93 1013.0
20260510100703 50 279 0.0 1.0 0.00 0.00 0.00 93 1013.0
20260510100202 50 143 0.0 1.0 0.00 0.00 0.00 93 1013.0
20260510095702 50 100 0.0 1.0 0.00 0.00 0.00 93 1012.9
20260510095201 50 110 0.0 1.0 0.00 0.00 0.00 93 1013.0
20260510094700 50 100 0.0 1.0 0.00 0.00 0.00 93 1012.9
20260510094203 50 100 0.0 1.0 0.00 0.00 0.00 93 1012.9
20260510093704 50 100 0.0 0.0 0.00 0.00 0.00 93 1012.9
20260510093157 51 54 0.0 1.0 0.00 0.00 0.00 93 1012.9
20260510092652 50 54 0.0 1.0 0.00 0.00 0.00 93 1012.9
20260510092145 51 54 0.0 1.0 0.00 0.00 0.00 93 1012.9
20260510091639 51 117 0.0 1.0 0.00 0.00 0.00 93 1012.9
20260510091529 51 11 0.0 1.0 0.00 0.00 0.00 93 1012.9
20260510091522 51 100 0.0 1.0 0.00 0.00 0.00 93 1012.9
20260510090135 51 82 0.0 1.0 0.00 0.00 0.00 93 1012.8
20260510085634 51 28 0.0 1.0 0.00 0.00 0.00 93 1012.8
20260510085133 51 100 0.0 1.0 0.00 0.00 0.00 93 1012.8
20260510084632 51 54 0.0 1.0 0.00 0.00 0.00 93 1012.9
20260510084130 51 117 0.0 1.0 0.00 0.00 0.00 93 1012.8
20260510083630 51 116 0.0 1.0 0.00 0.00 0.00 93 1012.8
20260510083426 51 100 0.0 1.0 0.00 0.00 0.00 93 1012.9
20260510082629 51 11 0.0 1.0 0.00 0.00 0.00 93 1012.9
20260510082131 51 11 0.0 1.0 0.00 0.00 0.00 93 1012.8
20260510081630 51 11 0.0 1.0 0.00 0.00 0.00 93 1012.8
20260510081131 52 54 0.0 1.0 0.00 0.00 0.00 93 1012.8
20260510080630 52 54 0.0 1.0 0.00 0.00 0.00 93 1012.8
20260510080131 52 54 0.0 1.0 0.00 0.00 0.00 92 1012.7
20260510075630 52 54 0.0 1.0 0.00 0.00 0.00 93 1012.5
20260510075130 52 234 0.0 1.0 0.00 0.00 0.00 93 1012.4
20260510074930 52 11 0.0 1.0 0.00 0.00 0.00 93 1012.3
20260510074129 52 11 0.0 1.0 0.00 0.00 0.00 93 1012.2
20260510073621 52 54 0.0 1.0 0.00 0.00 0.00 93 1012.3
20260510073116 52 54 0.0 1.0 0.00 0.00 0.00 93 1012.3
20260510072913 52 11 0.0 1.0 0.00 0.00 0.00 93 1012.3
20260510072116 52 54 0.0 1.0 0.00 0.00 0.00 93 1012.1
20260510071617 53 305 0.0 1.0 0.00 0.00 0.00 93 1012.0
20260510071116 53 234 0.0 1.0 0.00 0.00 0.00 92 1011.9
20260510070616 53 100 0.0 1.0 0.00 0.00 0.00 92 1011.9
20260510070117 53 82 0.0 1.0 0.00 0.00 0.00 92 1011.8
20260510065616 53 54 0.0 1.0 0.00 0.00 0.00 92 1011.8
20260510065118 53 54 0.0 1.0 0.00 0.00 0.00 92 1011.8
20260510064618 53 54 0.0 1.0 0.00 0.00 0.00 92 1011.8
20260510064117 53 54 0.0 3.0 0.00 0.00 0.00 92 1011.6
20260510063617 53 143 0.0 3.0 0.00 0.00 0.00 92 1011.6
20260510063118 53 261 0.0 3.0 0.00 0.00 0.00 92 1011.7
20260510062616 54 11 1.0 3.0 0.00 0.00 0.00 92 1011.6
20260510062115 54 82 0.0 1.0 0.00 0.00 0.00 92 1011.6
20260510061617 54 82 0.0 3.0 0.00 0.00 0.00 92 1011.6
20260510061113 54 100 0.0 3.0 0.00 0.00 0.00 91 1011.7
20260510060604 54 54 0.0 1.0 0.00 0.00 0.00 92 1011.6
20260510060105 54 234 0.0 1.0 0.00 0.00 0.00 91 1011.6
20260510055603 54 100 0.0 1.0 0.00 0.00 0.00 91 1011.6
20260510055102 55 54 0.0 1.0 0.00 0.00 0.00 91 1011.8
20260510054603 55 100 0.0 1.0 0.00 0.00 0.00 91 1011.7
20260510054352 55 82 0.0 1.0 0.00 0.00 0.00 91 1011.7
20260510053652 55 54 0.0 1.0 0.00 0.00 0.00 91 1011.9
20260510053638 55 11 0.0 1.0 0.00 0.00 0.00 91 1011.9
20260510052602 55 54 0.0 1.0 0.00 0.00 0.00 91 1011.9
20260510052352 55 82 1.0 1.0 0.00 0.00 0.00 91 1011.9
20260510051602 55 89 1.0 1.0 0.00 0.00 0.00 91 1011.8
20260510051102 55 73 0.0 1.0 0.00 0.00 0.00 90 1011.8
20260510050601 56 54 0.0 1.0 0.00 0.00 0.00 90 1011.9
20260510050400 56 82 0.0 1.0 0.00 0.00 0.00 91 1011.8
20260510045601 56 11 1.0 1.0 0.00 0.00 0.00 90 1011.7
20260510045101 56 89 0.0 3.0 0.00 0.00 0.00 90 1011.8
20260510044853 56 11 0.0 3.0 0.00 0.00 0.00 90 1011.8
20260510044103 56 234 0.0 1.0 0.00 0.00 0.00 90 1011.7
20260510043600 56 11 0.0 1.0 0.00 0.00 0.00 90 1011.8
20260510043101 56 11 0.0 1.0 0.00 0.00 0.00 90 1011.8
20260510042601 57 11 0.0 1.0 0.00 0.00 0.00 89 1011.6
20260510042102 57 54 0.0 1.0 0.00 0.00 0.00 89 1011.7
20260510041602 57 100 0.0 1.0 0.00 0.00 0.00 89 1011.7
20260510041102 57 11 0.0 1.0 0.00 0.00 0.00 89 1011.5
20260510040657 57 54 0.0 1.0 0.00 0.00 0.00 89 1011.7
20260510040636 57 54 0.0 1.0 0.00 0.00 0.00 89 1011.7
20260510035602 57 11 0.0 1.0 0.00 0.00 0.00 88 1011.6
20260510035102 58 54 0.0 1.0 0.00 0.00 0.00 88 1011.6
20260510034853 58 54 0.0 1.0 0.00 0.00 0.00 88 1011.5
20260510034103 58 54 0.0 1.0 0.00 0.00 0.00 87 1011.5
20260510033601 58 54 0.0 1.0 0.00 0.00 0.00 87 1011.5
20260510033103 58 54 0.0 1.0 0.00 0.00 0.00 87 1011.4
20260510032601 58 82 0.0 1.0 0.00 0.00 0.00 86 1011.5
20260510032101 58 11 0.0 1.0 0.00 0.00 0.00 86 1011.5
20260510031602 59 82 0.0 1.0 0.00 0.00 0.00 86 1011.6
20260510031101 59 54 0.0 1.0 0.00 0.00 0.00 86 1011.5
20260510030602 59 353 0.0 1.0 0.00 0.00 0.00 85 1011.5
20260510030103 59 353 0.0 1.0 0.00 0.00 0.00 85 1011.4
20260510025601 60 54 0.0 1.0 0.00 0.00 0.00 85 1011.5
20260510025101 60 11 0.0 1.0 0.00 0.00 0.00 84 1011.4
20260510024602 60 100 0.0 1.0 0.00 0.00 0.00 84 1011.4
20260510024102 60 54 0.0 1.0 0.00 0.00 0.00 84 1011.4
20260510023849 60 28 0.0 1.0 0.00 0.00 0.00 83 1011.3
20260510023103 60 11 0.0 1.0 0.00 0.00 0.00 82 1011.2
20260510022602 60 54 0.0 1.0 0.00 0.00 0.00 82 1011.2
20260510022102 61 54 0.0 1.0 0.00 0.00 0.00 82 1011.1
20260510021851 61 11 0.0 1.0 0.00 0.00 0.00 82 1011.0
20260510021352 61 234 0.0 1.0 0.00 0.00 0.00 81 1011.1
20260510020604 61 54 0.0 1.0 0.00 0.00 0.00 81 1011.0
20260510020100 61 11 0.0 1.0 0.00 0.00 0.00 81 1011.0
20260510015654 62 11 0.0 1.0 0.00 0.00 0.00 80 1010.9
20260510015634 62 54 0.0 1.0 0.00 0.00 0.00 80 1011.0
20260510014601 62 279 0.0 3.0 0.00 0.00 0.00 79 1010.9
20260510014103 62 279 0.0 3.0 0.00 0.00 0.00 79 1010.8
20260510013654 62 261 0.0 3.0 0.00 0.00 0.00 79 1010.6
20260510013636 62 11 0.0 3.0 0.00 0.00 0.00 79 1010.8
20260510012602 62 279 0.0 1.0 0.00 0.00 0.00 79 1010.6
20260510012103 62 234 0.0 1.0 0.00 0.00 0.00 78 1010.5
20260510011604 62 100 0.0 1.0 0.00 0.00 0.00 78 1010.3
20260510011448 63 100 0.0 3.0 0.00 0.00 0.00 76 1010.3
20260510011133 63 326 0.0 1.0 0.00 0.00 0.00 78 1010.3
20260510010103 63 82 0.0 3.0 0.00 0.00 0.00 76 1010.2
20260510005602 63 143 0.0 3.0 0.00 0.00 0.00 76 1010.1
20260510005103 64 54 0.0 1.0 0.00 0.00 0.00 76 1010.2
20260510004604 64 326 0.0 1.0 0.00 0.00 0.00 74 1010.0
20260510004103 65 54 0.0 1.0 0.00 0.00 0.00 73 1009.9
20260510003602 65 54 0.0 1.0 0.00 0.00 0.00 72 1009.9
20260510003102 66 54 0.0 1.0 0.00 0.00 0.00 71 1009.9
20260510002604 66 11 0.0 1.0 0.00 0.00 0.00 70 1009.9
20260510002101 66 11 0.0 3.0 0.00 0.00 0.00 69 1009.8
20260510001602 67 54 1.0 3.0 0.00 0.00 0.00 68 1009.8
20260510001102 67 241 0.0 3.0 0.00 0.00 0.00 67 1009.8
20260510000856 68 338 0.0 3.0 0.00 0.00 0.00 66 1009.7
20260509235603 69 54 1.0 3.0 0.00 0.00 0.00 64 1009.7
20260509235104 69 54 1.0 3.0 0.00 0.00 0.00 64 1009.7
20260509234853 69 54 0.0 3.0 0.00 0.00 0.00 63 1009.5
20260509234101 70 143 0.0 3.0 0.00 0.00 0.00 62 1009.4
20260509233602 70 326 1.0 3.0 0.00 0.00 0.00 61 1009.4
20260509233101 71 54 0.0 3.0 0.00 0.00 0.00 61 1009.4
20260509232853 71 100 0.0 1.0 0.00 0.00 0.00 61 1009.4
20260509232101 71 54 0.0 3.0 0.00 0.00 0.00 60 1009.4
20260509231601 71 11 0.0 3.0 0.00 0.00 0.00 58 1009.3
20260509231101 71 54 0.0 3.0 0.00 0.00 0.00 57 1009.3
20260509230601 72 73 0.0 3.0 0.00 0.00 0.00 57 1009.3
20260509225853 72 100 0.0 3.0 0.00 0.00 0.00 56 1009.4
20260509225105 72 100 0.0 1.0 0.00 0.00 0.00 56 1009.3
20260509224603 72 11 0.0 1.0 0.00 0.00 0.00 55 1009.4
20260509224102 73 100 1.0 3.0 0.00 0.00 0.00 54 1009.4
20260509223603 72 54 1.0 3.0 0.00 0.00 0.00 55 1009.3
20260509223102 73 89 1.0 4.0 0.00 0.00 0.00 56 1009.2
20260509222602 74 11 1.0 4.0 0.00 0.00 0.00 50 1009.2
20260509222104 74 188 0.0 3.0 0.00 0.00 0.00 50 1009.3
20260509221602 74 100 1.0 3.0 0.00 0.00 0.00 53 1009.3
20260509221402 74 54 1.0 3.0 0.00 0.00 0.00 52 1009.3
20260509220601 74 188 1.0 3.0 0.00 0.00 0.00 53 1009.3
20260509215603 74 11 1.0 5.0 0.00 0.00 0.00 51 1009.3
20260509215400 75 296 1.0 5.0 0.00 0.00 0.00 49 1009.3
20260509214602 75 166 2.0 5.0 0.00 0.00 0.00 48 1009.4
20260509214103 76 203 2.0 7.0 0.00 0.00 0.00 47 1009.3
20260509213603 76 158 2.0 7.0 0.00 0.00 0.00 45 1009.3
20260509213101 78 222 2.0 5.0 0.00 0.00 0.00 46 1009.3
20260509212600 77 143 1.0 5.0 0.00 0.00 0.00 46 1009.3
20260509212102 76 54 1.0 4.0 0.00 0.00 0.00 48 1009.3
20260509211601 75 82 1.0 4.0 0.00 0.00 0.00 49 1009.2
20260509211100 74 41 1.0 3.0 0.00 0.00 0.00 49 1009.3
20260509210601 74 11 1.0 3.0 0.00 0.00 0.00 51 1009.4
20260509205602 74 143 1.0 4.0 0.00 0.00 0.00 50 1009.4
20260509205102 74 143 2.0 8.0 0.00 0.00 0.00 48 1009.4
20260509204603 74 152 3.0 8.0 0.00 0.00 0.00 48 1009.4
20260509204359 76 188 3.0 9.0 0.00 0.00 0.00 48 1009.3
20260509203604 76 143 3.0 9.0 0.00 0.00 0.00 48 1009.3
20260509203058 75 166 3.0 11.0 0.00 0.00 0.00 46 1009.2
20260509202554 76 167 3.0 11.0 0.00 0.00 0.00 46 1009.2
20260509202054 76 150 2.0 9.0 0.00 0.00 0.00 45 1009.2
20260509201552 75 127 1.0 7.0 0.00 0.00 0.00 50 1009.2
20260509201052 75 37 2.0 8.0 0.00 0.00 0.00 50 1009.4
20260509200553 75 100 3.0 12.0 0.00 0.00 0.00 48 1009.5
20260509200054 75 192 2.0 12.0 0.00 0.00 0.00 46 1009.7
20260509195554 76 11 2.0 8.0 0.00 0.00 0.00 49 1009.7
20260509195052 76 222 2.0 8.0 0.00 0.00 0.00 51 1009.8
20260509194555 75 166 2.0 8.0 0.00 0.00 0.00 52 1009.9
20260509194054 74 11 2.0 9.0 0.00 0.00 0.00 53 1009.9
20260509193555 73 215 2.0 9.0 0.00 0.00 0.00 53 1009.9
20260509193051 72 100 1.0 9.0 0.00 0.00 0.00 54 1010.2
20260509192552 72 54 1.0 7.0 0.00 0.00 0.00 56 1010.2
20260509192049 73 82 2.0 11.0 0.00 0.00 0.00 53 1010.4
20260509191549 73 158 3.0 11.0 0.00 0.00 0.00 52 1010.4
20260509191050 72 152 2.0 8.0 0.00 0.00 0.00 54 1010.5
20260509190550 71 162 1.0 7.0 0.00 0.00 0.00 55 1010.5
20260509190050 72 178 1.0 4.0 0.00 0.00 0.00 53 1010.4
20260509185551 72 260 1.0 4.0 0.00 0.00 0.00 54 1010.4
20260509185048 72 132 1.0 4.0 0.00 0.00 0.00 56 1010.3
20260509184548 70 171 1.0 4.0 0.00 0.00 0.00 55 1010.3
20260509184050 71 271 1.0 4.0 0.00 0.00 0.00 57 1010.8
20260509183547 71 215 1.0 4.0 0.00 0.00 0.00 56 1010.7
20260509183047 70 82 1.0 4.0 0.00 0.00 0.00 56 1010.7
20260509182545 70 258 1.0 4.0 0.00 0.00 0.00 57 1010.8
20260509182046 70 279 1.0 3.0 0.00 0.00 0.00 57 1010.7
20260509181849 69 28 1.0 4.0 0.00 0.00 0.00 58 1010.9
20260509181046 68 234 2.0 7.0 0.00 0.00 0.00 59 1011.0
20260509180546 68 269 2.0 7.0 0.00 0.00 0.00 59 1011.2
20260509180047 68 150 2.0 7.0 0.00 0.00 0.00 57 1011.3
20260509175548 69 234 2.0 8.0 0.00 0.00 0.00 57 1011.4
20260509175041 69 205 3.0 8.0 0.00 0.00 0.00 56 1011.3
20260509174541 69 213 3.0 8.0 0.00 0.00 0.00 55 1011.3
20260509174336 69 171 3.0 11.0 0.00 0.00 0.00 55 1011.5
20260509173540 69 177 3.0 12.0 0.00 0.00 0.00 55 1011.5
20260509173338 69 162 3.0 12.0 0.00 0.00 0.00 56 1011.3
20260509172540 70 132 3.0 11.0 0.00 0.00 0.00 54 1011.4
20260509172343 71 155 3.0 9.0 0.00 0.00 0.00 53 1011.4
20260509171541 71 280 2.0 9.0 0.00 0.00 0.00 53 1011.4
20260509171041 69 137 3.0 12.0 0.00 0.00 0.00 54 1011.5
20260509170840 69 132 4.0 14.0 0.00 0.00 0.00 55 1011.6
20260509170041 69 177 4.0 14.0 0.00 0.00 0.00 54 1011.6
20260509165541 69 150 3.0 12.0 0.00 0.00 0.00 55 1011.5
20260509165038 69 187 2.0 8.0 0.00 0.00 0.00 56 1011.6
20260509164538 68 171 3.0 18.0 0.00 0.00 0.00 56 1011.7
20260509164040 68 135 3.0 18.0 0.00 0.00 0.00 57 1011.7
20260509163536 68 160 2.0 11.0 0.00 0.00 0.00 56 1011.6
20260509163038 68 171 1.0 5.0 0.00 0.00 0.00 59 1011.7
20260509162538 68 143 1.0 5.0 0.00 0.00 0.00 56 1011.6
20260509162035 69 54 1.0 4.0 0.00 0.00 0.00 57 1011.6
20260509161535 69 171 2.0 7.0 0.00 0.00 0.00 56 1011.6
20260509161034 69 153 2.0 7.0 0.00 0.00 0.00 55 1011.6
20260509160535 69 191 2.0 5.0 0.00 0.00 0.00 55 1011.7
20260509160034 70 172 2.0 8.0 0.00 0.00 0.00 53 1011.6
20260509155533 71 117 2.0 8.0 0.00 0.00 0.00 53 1011.7
20260509155334 70 162 2.0 7.0 0.00 0.00 0.00 55 1011.7
20260509154532 68 191 2.0 7.0 0.00 0.00 0.00 56 1011.8
20260509154032 69 279 1.0 7.0 0.00 0.00 0.00 55 1011.8
20260509153532 69 143 1.0 7.0 0.00 0.00 0.00 56 1012.0
20260509153033 67 41 1.0 5.0 0.00 0.00 0.00 57 1012.0
20260509152535 67 162 2.0 5.0 0.00 0.00 0.00 58 1012.0
20260509152033 67 41 1.0 5.0 0.00 0.00 0.00 59 1012.1
20260509151532 67 41 2.0 5.0 0.00 0.00 0.00 60 1012.1
20260509151033 66 143 1.0 4.0 0.00 0.00 0.00 61 1012.2
20260509150532 65 114 1.0 4.0 0.00 0.00 0.00 61 1012.3
20260509150330 65 37 1.0 4.0 0.00 0.00 0.00 61 1012.3
20260509145831 64 41 1.0 3.0 0.00 0.00 0.00 62 1012.4
20260509145033 64 143 1.0 3.0 0.00 0.00 0.00 63 1012.5
20260509144531 64 77 1.0 3.0 0.00 0.00 0.00 64 1012.5
20260509144030 63 107 1.0 4.0 0.00 0.00 0.00 64 1012.6
20260509143528 63 44 1.0 4.0 0.00 0.00 0.00 63 1012.7
20260509143029 63 54 1.0 3.0 0.00 0.00 0.00 65 1012.8
20260509142528 62 33 1.0 3.0 0.00 0.00 0.00 67 1012.8
20260509142029 62 54 1.0 3.0 0.00 0.00 0.00 65 1012.9
20260509141528 62 117 1.0 3.0 0.00 0.00 0.00 66 1012.8
20260509141026 62 143 1.0 3.0 0.00 0.00 0.00 65 1012.8
20260509140526 62 125 1.0 4.0 0.00 0.00 0.00 63 1012.8
20260509140323 62 54 1.0 4.0 0.00 0.00 0.00 63 1012.7
20260509135525 62 196 1.0 5.0 0.00 0.00 0.00 61 1012.6
20260509135024 62 129 1.0 5.0 0.00 0.00 0.00 62 1012.6